[ show orbit diagram ]
Orbital Elements at Epoch 2459000.5 (2020-May-31.0) TDB
Reference: JPL 36 (heliocentric ecliptic J2000)
Element | Value | Uncertainty (1-sigma) | Units |
e | .1091247357601794 | 3.2315e-08 | |
a | 3.136051341228232 | 1.3183e-08 | au |
q | 2.793830567286344 | 1.0697e-07 | au |
i | 8.519269398448971 | 3.8188e-06 | deg |
node | 167.8426362998768 | 2.6054e-05 | deg |
peri | 137.5182449119928 | 3.3218e-05 | deg |
M | 303.6528169122537 | 2.0704e-05 | deg |
tp | 2459317.999380178115 (2021-Apr-13.49938018) | 0.00011691 | TDB |
period | 2028.491409874541 5.55 | 1.2791e-05 3.502e-08 | d yr |
n | .1774717892555756 | 1.1191e-09 | deg/d |
Q | 3.478272115170119 | 1.4622e-08 | au |
|
| | Orbit Determination Parameters
Additional Information
|
[ show covariance matrix ]
Physical Parameter Table
Parameter |
Symbol |
Value |
Units |
Sigma |
Reference |
Notes |
absolute magnitude |
H |
10.9 |
|
n/a |
MPO263361 |
|
diameter |
diameter |
28.072 |
km |
0.103 |
urn:nasa:pds:neowise_diameters_albedos::2.0[mainbelt] (http://adsabs.harvard.edu/abs/2014ApJ...791..121M) |
|
rotation period |
rot_per |
17.565 |
h |
n/a |
LCDB (Rev. 2020-October); Warner et al., 2009 |
Published Reference List: [Brinsfield, J.W. (2011) Minor Planet Bull. 38, 73-74.] [Waszczak, A.; Chang, C.-K.; Ofeck, E.O.; Laher, F.; et al. (2015) Astron. J. 150, A75.] |
geometric albedo |
albedo |
0.074 |
|
0.008 |
urn:nasa:pds:neowise_diameters_albedos::2.0[mainbelt] (http://adsabs.harvard.edu/abs/2012ApJ...759L...8M) |
|
|
1811 Bruwer (4576 P-L) Discovered 1960-Sep-24 by PLS at Palomar |
These planets have all been discovered as a result of the Palomar survey of faint minor planets and subsequently identified with planets observed at other oppositions. In Sept. and Oct. 1960, T. Gehrels exposed 130 plates with the 122 cm Schmidt camera at Palomar. In the following years C. J. van Houten and I. van Houten-Groeneveld measured these plates astrometrically and photometrically at Leiden. P. Herget, Cincinnati, computed the orbits of the planets found on the NORC computer, Dahlgren, Virginia, USA. |
Note: "planet" implies "minor planet" |
Reference: DISCOVERY.DB | Last Updated: 2003-08-29 |
|
[ show close-approach data ]
Alternate Designations
4576 P-L = 1931 KM = 1948 MJ = 1965 RA = 1970 KJ |
|
|
|